Weather in Guwahati

India     26°10′40″N   91°44′51″E
temp.,
°C
wind,
m/s
gust,
m/s
humid.,
%
clouds,
%
prec.,
mm/h
press.,
hPa
HPBL,
m
23 october, sat
sat2323:30+22ssw11780 0.0 101415
02:30+20se11830 0.0 101312
05:30+19e11860 0.0 101415
08:30+24ene23720 0.0 1016419
11:30+27ene336041 0.0 1014838
14:30+28nne22600 0.0 1011814
17:30+24w00730 0.0 101211
20:30+23sse11780 0.0 101413
24 october, sun
sun2423:30+22ese00840 0.0 101411
02:30+21ese11885 0.0 101312
05:30+20e11915 0.0 101417
08:30+25ene33755 0.0 1016455
11:30+28ne23624 0.0 1013839
14:30+28nne11605 0.0 1010800
17:30+24w00730 0.0 101111
20:30+23s11780 0.0 101312
25 october, mon
mon2523:30+23sw118286 0.0 101219
02:30+23wsw008485 0.3 101112
05:30+22se118875 0.6 101214
08:30+25ene22761 0.1 1014501
11:30+28nne21641 0.1 1011961
14:30+29nnw21644 0.0 1009936
17:30+25sw00770 0.6 100911
20:30+22sw22880 1.5 101223
26 october, tue
tue2623:30+21sw11890 1.5 101215
02:30+21s11890 0.0 101113
05:30+20e11910 0.1 101216
08:30+24ene22791 0.0 1014419
11:30+28ne22640 0.0 1012925
14:30+28nne22620 0.0 10091050
17:30+24n01770 0.3 101011
20:30+23sw11840 0.9 101213
27 october, wed
wed2723:30+21ssw11890 1.0 101313
02:30+20sse11900 0.1 101212
05:30+20ese11920 0.1 101411
08:30+24ene22791 0.0 1015441
11:30+28ene23660 0.0 1013953
14:30+28ne33640 0.0 1009903
17:30+24n11801 0.6 101011
20:30+23s00830 0.2 101212